TimePST,TemperatureF,Dew PointF,Humidity,Sea Level PressureIn,VisibilityMPH,Wind Direction,Wind SpeedMPH,Gust SpeedMPH,PrecipitationIn,Events,Conditions,WindDirDegrees,DateUTC
12:53 AM,43.0,41.0,93,30.19,4.0,Calm,Calm,-,0.06,Rain,Light Rain,0,2012-11-24 08:53:00
1:26 AM,42.8,41.0,93,30.17,4.0,Calm,Calm,-,0.03,Rain,Light Rain,0,2012-11-24 09:26:00
1:37 AM,42.8,41.0,93,30.17,4.0,Calm,Calm,-,0.04,Rain,Light Rain,0,2012-11-24 09:37:00
1:53 AM,43.0,42.1,97,30.18,5.0,Calm,Calm,-,0.05,Rain,Light Rain,0,2012-11-24 09:53:00
2:13 AM,42.8,41.0,93,30.17,5.0,North,3.5,-,0.02,Rain,Light Rain,350,2012-11-24 10:13:00
2:23 AM,42.8,42.8,100,30.17,4.0,NNW,3.5,-,0.04,Rain,Light Rain,330,2012-11-24 10:23:00
2:33 AM,42.8,41.0,93,30.17,4.0,NNE,4.6,-,0.05,Rain,Light Rain,20,2012-11-24 10:33:00
2:53 AM,43.0,42.1,97,30.17,7.0,Calm,Calm,-,0.05,Rain,Light Rain,0,2012-11-24 10:53:00
3:28 AM,42.8,42.8,100,30.15,6.0,WSW,3.5,-,0.01,Rain,Light Rain,240,2012-11-24 11:28:00
3:53 AM,43.0,42.1,97,30.15,4.0,Calm,Calm,-,0.01,,Overcast,0,2012-11-24 11:53:00
4:53 AM,44.1,42.1,93,30.16,6.0,NNW,3.5,-,0.00,Rain,Light Rain,330,2012-11-24 12:53:00
5:53 AM,44.1,43.0,96,30.16,9.0,Calm,Calm,-,0.00,,Overcast,0,2012-11-24 13:53:00
6:53 AM,44.1,42.1,93,30.17,10.0,ESE,4.6,-,N/A,,Mostly Cloudy,120,2012-11-24 14:53:00
7:53 AM,48.0,43.0,83,30.19,10.0,NNW,6.9,-,N/A,,Mostly Cloudy,330,2012-11-24 15:53:00
8:53 AM,50.0,45.0,83,30.20,10.0,NW,9.2,-,N/A,,Scattered Clouds,320,2012-11-24 16:53:00
9:53 AM,52.0,45.0,77,30.20,10.0,North,3.5,-,N/A,,Clear,360,2012-11-24 17:53:00
10:53 AM,51.1,44.1,77,30.20,10.0,NNW,8.1,-,N/A,,Scattered Clouds,340,2012-11-24 18:53:00
11:53 AM,51.1,43.0,74,30.19,10.0,NW,10.4,-,N/A,,Clear,320,2012-11-24 19:53:00
12:53 PM,53.1,42.1,66,30.18,10.0,NNW,8.1,-,N/A,,Scattered Clouds,340,2012-11-24 20:53:00
1:53 PM,53.1,39.9,61,30.17,10.0,North,3.5,-,N/A,,Mostly Cloudy,10,2012-11-24 21:53:00
2:53 PM,52.0,39.9,63,30.17,10.0,NW,8.1,-,N/A,,Clear,320,2012-11-24 22:53:00
3:53 PM,51.1,39.0,63,30.17,10.0,NNW,4.6,-,N/A,,Clear,340,2012-11-24 23:53:00
4:53 PM,50.0,39.0,66,30.17,10.0,NW,6.9,-,N/A,,Clear,320,2012-11-25 00:53:00
5:53 PM,48.9,39.9,71,30.17,10.0,NW,9.2,-,N/A,,Clear,320,2012-11-25 01:53:00
6:53 PM,46.9,39.9,77,30.18,10.0,NNW,9.2,-,N/A,,Clear,340,2012-11-25 02:53:00
7:53 PM,46.0,39.0,76,30.17,10.0,NW,10.4,-,N/A,,Clear,320,2012-11-25 03:53:00
8:53 PM,45.0,39.0,80,30.18,10.0,NW,9.2,-,N/A,,Clear,310,2012-11-25 04:53:00
9:53 PM,46.0,37.9,73,30.19,10.0,NW,11.5,-,N/A,,Clear,310,2012-11-25 05:53:00
10:53 PM,44.1,37.0,76,30.20,10.0,WNW,10.4,-,N/A,,Clear,290,2012-11-25 06:53:00
11:53 PM,39.9,35.1,83,30.21,10.0,WSW,5.8,-,N/A,,Clear,250,2012-11-25 07:53:00